Time,TemperatureF,DewpointF,PressureIn,WindDirection,WindDirectionDegrees,WindSpeedMPH,WindSpeedGustMPH,Humidity,HourlyPrecipIn,Conditions,Clouds,dailyrainin,SoftwareType,DateUTC
2013-01-14 00:02:00,29.7,26.3,31.04,WNW,293,0.2,0.9,87,0.00,,,0.00,WUHU216HW,2013-01-14 08:02:00,
2013-01-14 00:07:00,29.7,26.3,31.04,WNW,293,0.4,0.9,87,0.00,,,0.00,WUHU216HW,2013-01-14 08:07:00,
2013-01-14 00:12:00,29.9,26.2,31.04,WNW,293,0.4,0.7,86,0.00,,,0.00,WUHU216HW,2013-01-14 08:12:00,
2013-01-14 00:17:00,29.9,26.2,31.04,WNW,293,0.2,0.4,86,0.00,,,0.00,WUHU216HW,2013-01-14 08:17:00,
2013-01-14 00:22:00,29.9,26.2,31.04,WNW,293,0.4,0.4,86,0.00,,,0.00,WUHU216HW,2013-01-14 08:22:00,
2013-01-14 00:27:00,29.7,26.0,31.04,WNW,293,0.0,0.4,86,0.00,,,0.00,WUHU216HW,2013-01-14 08:27:00,
2013-01-14 00:32:00,29.5,25.8,31.04,WNW,293,0.2,0.4,86,0.00,,,0.00,WUHU216HW,2013-01-14 08:32:00,
2013-01-14 00:37:00,29.3,25.7,31.04,WNW,293,0.9,0.9,86,0.00,,,0.00,WUHU216HW,2013-01-14 08:37:00,
2013-01-14 00:42:00,29.3,25.7,31.05,WNW,293,0.0,0.9,86,0.00,,,0.00,WUHU216HW,2013-01-14 08:42:00,
2013-01-14 00:47:00,29.3,25.7,31.05,WNW,293,0.0,0.0,86,0.00,,,0.00,WUHU216HW,2013-01-14 08:47:00,
2013-01-14 00:52:00,29.3,25.7,31.05,WNW,293,0.7,2.0,86,0.00,,,0.00,WUHU216HW,2013-01-14 08:52:00,
2013-01-14 00:57:00,29.5,26.1,31.05,WNW,293,0.4,2.0,87,0.00,,,0.00,WUHU216HW,2013-01-14 08:57:00,
2013-01-14 01:02:00,29.3,25.7,31.04,WNW,293,0.9,0.9,86,0.00,,,0.00,WUHU216HW,2013-01-14 09:02:00,
2013-01-14 01:07:00,29.3,25.7,31.05,WNW,293,0.4,0.9,86,0.00,,,0.00,WUHU216HW,2013-01-14 09:07:00,
2013-01-14 01:12:00,29.3,25.9,31.05,WNW,293,0.0,0.9,87,0.00,,,0.00,WUHU216HW,2013-01-14 09:12:00,
2013-01-14 01:17:00,29.3,25.9,31.05,WNW,293,0.0,0.7,87,0.00,,,0.00,WUHU216HW,2013-01-14 09:17:00,
2013-01-14 01:22:00,29.3,25.9,31.05,WNW,293,1.1,1.3,87,0.00,,,0.00,WUHU216HW,2013-01-14 09:22:00,
2013-01-14 01:27:00,29.3,25.9,31.05,WNW,293,0.7,1.8,87,0.00,,,0.00,WUHU216HW,2013-01-14 09:27:00,
2013-01-14 01:32:00,29.2,25.5,31.05,WNW,293,0.0,1.8,86,0.00,,,0.00,WUHU216HW,2013-01-14 09:32:00,
2013-01-14 01:37:00,29.0,25.6,31.05,WNW,293,0.2,1.1,87,0.00,,,0.00,WUHU216HW,2013-01-14 09:37:00,
2013-01-14 01:42:00,29.0,25.3,31.05,WNW,293,0.2,1.1,86,0.00,,,0.00,WUHU216HW,2013-01-14 09:42:00,
2013-01-14 01:47:00,28.8,25.1,31.05,WNW,293,0.4,0.7,86,0.00,,,0.00,WUHU216HW,2013-01-14 09:47:00,
2013-01-14 01:52:00,28.6,24.9,31.05,WNW,293,1.1,1.6,86,0.00,,,0.00,WUHU216HW,2013-01-14 09:52:00,
2013-01-14 01:57:00,28.8,25.1,31.05,WNW,293,0.0,1.6,86,0.00,,,0.00,WUHU216HW,2013-01-14 09:57:00,
2013-01-14 02:02:00,28.8,25.1,31.05,WNW,293,0.0,0.4,86,0.00,,,0.00,WUHU216HW,2013-01-14 10:02:00,
2013-01-14 02:07:00,28.8,25.4,31.05,WNW,293,0.0,0.4,87,0.00,,,0.00,WUHU216HW,2013-01-14 10:07:00,
2013-01-14 02:12:00,28.8,25.4,31.05,WNW,293,0.9,1.3,87,0.00,,,0.00,WUHU216HW,2013-01-14 10:12:00,
2013-01-14 02:17:00,28.8,25.4,31.05,WNW,293,2.0,2.0,87,0.00,,,0.00,WUHU216HW,2013-01-14 10:17:00,
2013-01-14 02:22:00,28.6,25.2,31.06,WNW,293,0.4,2.0,87,0.00,,,0.00,WUHU216HW,2013-01-14 10:22:00,
2013-01-14 02:27:00,28.8,25.4,31.06,WNW,293,0.2,0.4,87,0.00,,,0.00,WUHU216HW,2013-01-14 10:27:00,
2013-01-14 02:32:00,28.6,25.2,31.05,WNW,293,0.0,1.1,87,0.00,,,0.00,WUHU216HW,2013-01-14 10:32:00,
2013-01-14 02:37:00,28.6,25.2,31.06,WNW,293,0.4,1.1,87,0.00,,,0.00,WUHU216HW,2013-01-14 10:37:00,
2013-01-14 02:42:00,28.6,25.2,31.05,WNW,293,0.0,0.4,87,0.00,,,0.00,WUHU216HW,2013-01-14 10:42:00,
2013-01-14 02:47:00,28.6,25.2,31.05,WNW,293,0.4,0.7,87,0.00,,,0.00,WUHU216HW,2013-01-14 10:47:00,
2013-01-14 02:52:00,28.8,25.4,31.05,WNW,293,0.4,1.1,87,0.00,,,0.00,WUHU216HW,2013-01-14 10:52:00,
2013-01-14 02:57:00,28.6,25.2,31.05,WNW,293,1.1,1.1,87,0.00,,,0.00,WUHU216HW,2013-01-14 10:57:00,
2013-01-14 03:02:00,28.6,25.2,31.05,WNW,293,0.0,1.1,87,0.00,,,0.00,WUHU216HW,2013-01-14 11:02:00,
2013-01-14 03:07:00,28.6,25.2,31.05,WNW,293,0.0,0.7,87,0.00,,,0.00,WUHU216HW,2013-01-14 11:07:00,
2013-01-14 03:12:00,28.6,25.2,31.06,WNW,293,0.7,0.7,87,0.00,,,0.00,WUHU216HW,2013-01-14 11:12:00,
2013-01-14 03:17:00,28.4,25.0,31.06,WNW,293,0.7,1.3,87,0.00,,,0.00,WUHU216HW,2013-01-14 11:17:00,
2013-01-14 03:22:00,28.4,25.0,31.06,WNW,293,0.0,1.3,87,0.00,,,0.00,WUHU216HW,2013-01-14 11:22:00,
2013-01-14 03:27:00,28.4,25.0,31.06,WNW,293,0.2,0.4,87,0.00,,,0.00,WUHU216HW,2013-01-14 11:27:00,
2013-01-14 03:32:00,28.6,25.2,31.06,WNW,293,0.0,0.4,87,0.00,,,0.00,WUHU216HW,2013-01-14 11:32:00,
2013-01-14 03:37:00,28.6,25.2,31.06,WNW,293,0.0,0.4,87,0.00,,,0.00,WUHU216HW,2013-01-14 11:37:00,
2013-01-14 03:42:00,28.6,25.2,31.06,WNW,293,0.0,0.4,87,0.00,,,0.00,WUHU216HW,2013-01-14 11:42:00,
2013-01-14 03:47:00,28.6,25.2,31.05,WNW,293,0.0,0.2,87,0.00,,,0.00,WUHU216HW,2013-01-14 11:47:00,
2013-01-14 03:52:00,28.8,25.4,31.05,WNW,293,0.2,0.4,87,0.00,,,0.00,WUHU216HW,2013-01-14 11:52:00,
2013-01-14 03:57:00,28.8,25.4,31.05,WNW,293,0.2,1.3,87,0.00,,,0.00,WUHU216HW,2013-01-14 11:57:00,
2013-01-14 04:02:00,28.8,25.4,31.05,WNW,293,0.2,1.3,87,0.00,,,0.00,WUHU216HW,2013-01-14 12:02:00,
2013-01-14 04:07:00,28.8,25.4,31.05,WNW,293,0.0,0.7,87,0.00,,,0.00,WUHU216HW,2013-01-14 12:07:00,
2013-01-14 04:12:00,28.8,25.4,31.05,WNW,293,0.2,1.3,87,0.00,,,0.00,WUHU216HW,2013-01-14 12:12:00,
2013-01-14 04:17:00,28.6,25.2,31.05,WNW,293,1.1,1.3,87,0.00,,,0.00,WUHU216HW,2013-01-14 12:17:00,
2013-01-14 04:22:00,28.4,25.0,31.05,WNW,293,0.2,1.3,87,0.00,,,0.00,WUHU216HW,2013-01-14 12:22:00,
2013-01-14 04:27:00,28.6,25.2,31.05,WNW,293,0.9,1.1,87,0.00,,,0.00,WUHU216HW,2013-01-14 12:27:00,
2013-01-14 04:32:00,28.6,25.2,31.05,WNW,293,0.2,1.8,87,0.00,,,0.00,WUHU216HW,2013-01-14 12:32:00,
2013-01-14 04:37:00,28.4,25.0,31.04,WNW,293,0.2,1.8,87,0.00,,,0.00,WUHU216HW,2013-01-14 12:37:00,
2013-01-14 04:42:00,28.4,25.0,31.04,WNW,293,0.4,1.1,87,0.00,,,0.00,WUHU216HW,2013-01-14 12:42:00,
2013-01-14 04:47:00,28.4,25.0,31.05,WNW,293,0.0,1.1,87,0.00,,,0.00,WUHU216HW,2013-01-14 12:47:00,
2013-01-14 04:52:00,28.4,25.0,31.05,WNW,293,0.7,0.9,87,0.00,,,0.00,WUHU216HW,2013-01-14 12:52:00,
2013-01-14 04:57:00,28.4,25.0,31.05,WNW,293,0.2,1.1,87,0.00,,,0.00,WUHU216HW,2013-01-14 12:57:00,
2013-01-14 05:02:00,28.4,25.4,31.05,WNW,293,0.0,1.1,88,0.00,,,0.00,WUHU216HW,2013-01-14 13:02:00,
2013-01-14 05:07:00,28.4,25.4,31.05,WNW,293,0.0,0.4,88,0.00,,,0.00,WUHU216HW,2013-01-14 13:07:00,
2013-01-14 05:12:00,28.4,25.4,31.05,WNW,293,0.0,0.4,88,0.00,,,0.00,WUHU216HW,2013-01-14 13:12:00,
2013-01-14 05:17:00,28.4,25.4,31.06,WNW,293,0.2,0.9,88,0.00,,,0.00,WUHU216HW,2013-01-14 13:17:00,
2013-01-14 05:22:00,28.6,25.6,31.06,WNW,293,0.2,0.9,88,0.00,,,0.00,WUHU216HW,2013-01-14 13:22:00,
2013-01-14 05:27:00,28.6,25.6,31.06,WNW,293,0.4,0.4,88,0.00,,,0.00,WUHU216HW,2013-01-14 13:27:00,
2013-01-14 05:32:00,28.4,25.4,31.06,WNW,293,0.0,0.7,88,0.00,,,0.00,WUHU216HW,2013-01-14 13:32:00,
2013-01-14 05:37:00,28.4,25.4,31.06,WNW,293,0.4,0.7,88,0.00,,,0.00,WUHU216HW,2013-01-14 13:37:00,
2013-01-14 05:42:00,28.4,25.4,31.07,WNW,293,0.2,1.6,88,0.00,,,0.00,WUHU216HW,2013-01-14 13:42:00,
2013-01-14 05:47:00,28.4,25.4,31.07,WNW,293,0.2,2.2,88,0.00,,,0.00,WUHU216HW,2013-01-14 13:47:00,
2013-01-14 05:52:00,28.4,25.4,31.07,WNW,293,0.4,2.2,88,0.00,,,0.00,WUHU216HW,2013-01-14 13:52:00,
2013-01-14 05:57:00,28.4,25.4,31.07,WNW,293,0.0,0.9,88,0.00,,,0.00,WUHU216HW,2013-01-14 13:57:00,
2013-01-14 06:02:00,28.4,25.4,31.07,WNW,293,0.0,0.4,88,0.00,,,0.00,WUHU216HW,2013-01-14 14:02:00,
2013-01-14 06:07:00,28.6,25.6,31.07,WNW,293,0.0,0.4,88,0.00,,,0.00,WUHU216HW,2013-01-14 14:07:00,
2013-01-14 06:12:00,28.6,25.6,31.07,WNW,293,0.0,0.4,88,0.00,,,0.00,WUHU216HW,2013-01-14 14:12:00,
2013-01-14 06:17:00,28.6,25.6,31.07,WNW,293,0.0,0.4,88,0.00,,,0.00,WUHU216HW,2013-01-14 14:17:00,
2013-01-14 06:22:00,28.8,25.8,31.06,WNW,293,0.2,0.4,88,0.00,,,0.00,WUHU216HW,2013-01-14 14:22:00,
2013-01-14 06:27:00,28.8,25.8,31.06,WNW,293,0.4,0.4,88,0.00,,,0.00,WUHU216HW,2013-01-14 14:27:00,
2013-01-14 06:32:00,28.8,25.8,31.07,WNW,293,0.7,1.1,88,0.00,,,0.00,WUHU216HW,2013-01-14 14:32:00,
2013-01-14 06:37:00,28.8,25.8,31.07,WNW,293,0.4,1.1,88,0.00,,,0.00,WUHU216HW,2013-01-14 14:37:00,
2013-01-14 06:42:00,29.0,25.9,31.07,WNW,293,0.4,0.9,88,0.00,,,0.00,WUHU216HW,2013-01-14 14:42:00,
2013-01-14 06:47:00,29.2,26.1,31.08,WNW,293,0.4,1.1,88,0.00,,,0.00,WUHU216HW,2013-01-14 14:47:00,
2013-01-14 06:52:00,29.0,25.9,31.08,WNW,293,1.3,1.3,88,0.00,,,0.00,WUHU216HW,2013-01-14 14:52:00,
2013-01-14 06:57:00,29.2,26.1,31.08,WNW,293,0.4,1.3,88,0.00,,,0.00,WUHU216HW,2013-01-14 14:57:00,
2013-01-14 07:02:00,29.2,26.1,31.07,WNW,293,0.0,0.7,88,0.00,,,0.00,WUHU216HW,2013-01-14 15:02:00,
2013-01-14 07:07:00,29.2,26.1,31.07,WNW,293,0.0,0.4,88,0.00,,,0.00,WUHU216HW,2013-01-14 15:07:00,
2013-01-14 07:12:00,29.2,26.1,31.07,WNW,293,0.2,1.1,88,0.00,,,0.00,WUHU216HW,2013-01-14 15:12:00,
2013-01-14 07:17:00,29.2,25.7,31.08,WNW,293,1.1,1.1,87,0.00,,,0.00,WUHU216HW,2013-01-14 15:17:00,
2013-01-14 07:22:00,29.0,25.6,31.08,WNW,293,0.2,1.1,87,0.00,,,0.00,WUHU216HW,2013-01-14 15:22:00,
2013-01-14 07:27:00,28.8,25.8,31.08,WNW,293,0.0,1.1,88,0.00,,,0.00,WUHU216HW,2013-01-14 15:27:00,
2013-01-14 07:32:00,29.0,25.9,31.08,WNW,293,0.4,1.3,88,0.00,,,0.00,WUHU216HW,2013-01-14 15:32:00,
2013-01-14 07:37:00,29.0,25.9,31.09,WNW,293,0.2,1.3,88,0.00,,,0.00,WUHU216HW,2013-01-14 15:37:00,
2013-01-14 07:42:00,29.0,25.9,31.09,WNW,293,0.2,1.1,88,0.00,,,0.00,WUHU216HW,2013-01-14 15:42:00,
2013-01-14 07:47:00,28.8,25.8,31.10,WNW,293,0.2,1.1,88,0.00,,,0.00,WUHU216HW,2013-01-14 15:47:00,
2013-01-14 07:52:00,29.0,25.9,31.10,WNW,293,0.4,1.1,88,0.00,,,0.00,WUHU216HW,2013-01-14 15:52:00,
2013-01-14 07:57:00,29.0,25.9,31.10,WNW,293,0.2,0.7,88,0.00,,,0.00,WUHU216HW,2013-01-14 15:57:00,
2013-01-14 08:02:00,28.8,25.8,31.10,WNW,293,0.2,0.2,88,0.00,,,0.00,WUHU216HW,2013-01-14 16:02:00,
2013-01-14 08:07:00,28.8,25.8,31.10,WNW,293,0.2,1.3,88,0.00,,,0.00,WUHU216HW,2013-01-14 16:07:00,
2013-01-14 08:12:00,28.8,25.8,31.09,WNW,293,0.2,1.8,88,0.00,,,0.00,WUHU216HW,2013-01-14 16:12:00,
2013-01-14 08:17:00,29.0,25.9,31.09,WNW,293,0.0,1.8,88,0.00,,,0.00,WUHU216HW,2013-01-14 16:17:00,
2013-01-14 08:22:00,29.0,25.9,31.08,WNW,293,1.1,1.1,88,0.00,,,0.00,WUHU216HW,2013-01-14 16:22:00,
2013-01-14 08:27:00,29.0,25.9,31.08,WNW,293,0.0,1.1,88,0.00,,,0.00,WUHU216HW,2013-01-14 16:27:00,
2013-01-14 08:32:00,29.0,25.9,31.08,WNW,293,0.0,1.1,88,0.00,,,0.00,WUHU216HW,2013-01-14 16:32:00,
2013-01-14 08:37:00,29.2,26.1,31.08,WNW,293,1.1,1.1,88,0.00,,,0.00,WUHU216HW,2013-01-14 16:37:00,
2013-01-14 08:42:00,29.2,26.1,31.08,WNW,293,0.2,1.1,88,0.00,,,0.00,WUHU216HW,2013-01-14 16:42:00,
2013-01-14 08:47:00,29.0,25.9,31.10,WNW,293,0.4,1.1,88,0.00,,,0.00,WUHU216HW,2013-01-14 16:47:00,
2013-01-14 08:52:00,29.2,26.1,31.09,WNW,293,0.9,0.9,88,0.00,,,0.00,WUHU216HW,2013-01-14 16:52:00,
2013-01-14 08:57:00,29.2,26.1,31.09,WNW,293,1.1,2.2,88,0.00,,,0.00,WUHU216HW,2013-01-14 16:57:00,
2013-01-14 09:02:00,29.3,26.3,31.09,WNW,293,0.0,2.2,88,0.00,,,0.00,WUHU216HW,2013-01-14 17:02:00,
2013-01-14 09:07:00,29.3,26.3,31.09,WNW,293,1.3,2.0,88,0.00,,,0.00,WUHU216HW,2013-01-14 17:07:00,
2013-01-14 09:12:00,29.7,26.7,31.10,WNW,293,0.7,2.0,88,0.00,,,0.00,WUHU216HW,2013-01-14 17:12:00,
2013-01-14 09:17:00,29.7,26.7,31.09,WNW,293,0.2,1.8,88,0.00,,,0.00,WUHU216HW,2013-01-14 17:17:00,
2013-01-14 09:22:00,29.7,26.7,31.09,WNW,293,0.0,1.1,88,0.00,,,0.00,WUHU216HW,2013-01-14 17:22:00,
2013-01-14 09:27:00,29.9,26.8,31.10,WNW,293,1.1,1.1,88,0.00,,,0.00,WUHU216HW,2013-01-14 17:27:00,
2013-01-14 09:32:00,29.7,26.7,31.09,WNW,293,0.4,1.1,88,0.00,,,0.00,WUHU216HW,2013-01-14 17:32:00,
2013-01-14 09:37:00,29.7,26.7,31.10,WNW,293,0.2,1.1,88,0.00,,,0.00,WUHU216HW,2013-01-14 17:37:00,
2013-01-14 09:42:00,29.7,26.7,31.10,WNW,293,0.4,2.7,88,0.00,,,0.00,WUHU216HW,2013-01-14 17:42:00,
2013-01-14 09:47:00,29.9,26.8,31.10,WNW,293,1.1,2.7,88,0.00,,,0.00,WUHU216HW,2013-01-14 17:47:00,
2013-01-14 09:52:00,29.9,26.8,31.11,WNW,293,1.1,1.1,88,0.00,,,0.00,WUHU216HW,2013-01-14 17:52:00,
2013-01-14 09:57:00,30.1,27.0,31.11,WNW,293,0.4,1.8,88,0.00,,,0.00,WUHU216HW,2013-01-14 17:57:00,
2013-01-14 10:02:00,30.2,27.5,31.11,WNW,293,1.3,2.5,89,0.00,,,0.00,WUHU216HW,2013-01-14 18:02:00,
2013-01-14 10:07:00,30.4,27.6,31.11,WNW,293,0.9,2.5,89,0.00,,,0.00,WUHU216HW,2013-01-14 18:07:00,
2013-01-14 10:12:00,30.4,27.6,31.11,WNW,293,2.0,2.0,89,0.00,,,0.00,WUHU216HW,2013-01-14 18:12:00,
2013-01-14 10:17:00,30.6,27.8,31.10,WNW,293,0.4,2.0,89,0.00,,,0.00,WUHU216HW,2013-01-14 18:17:00,
2013-01-14 10:22:00,31.0,28.2,31.11,WNW,293,1.8,1.8,89,0.00,,,0.00,WUHU216HW,2013-01-14 18:22:00,
2013-01-14 10:27:00,31.0,27.9,31.11,WNW,293,2.0,2.0,88,0.00,,,0.00,WUHU216HW,2013-01-14 18:27:00,
2013-01-14 10:32:00,31.0,27.9,31.12,WNW,293,0.4,3.4,88,0.00,,,0.00,WUHU216HW,2013-01-14 18:32:00,
2013-01-14 10:37:00,31.0,27.9,31.12,WNW,293,0.0,3.4,88,0.00,,,0.00,WUHU216HW,2013-01-14 18:37:00,
2013-01-14 10:42:00,31.0,27.9,31.11,WNW,293,1.1,1.8,88,0.00,,,0.00,WUHU216HW,2013-01-14 18:42:00,
2013-01-14 10:47:00,31.1,28.1,31.11,WNW,293,1.8,1.8,88,0.00,,,0.00,WUHU216HW,2013-01-14 18:47:00,
2013-01-14 10:52:00,31.1,28.1,31.11,WNW,293,0.4,2.7,88,0.00,,,0.00,WUHU216HW,2013-01-14 18:52:00,
2013-01-14 10:57:00,31.1,28.1,31.11,WNW,293,0.0,2.7,88,0.00,,,0.00,WUHU216HW,2013-01-14 18:57:00,
2013-01-14 11:02:00,31.3,28.3,31.11,WNW,293,0.4,2.5,88,0.00,,,0.00,WUHU216HW,2013-01-14 19:02:00,
2013-01-14 11:07:00,31.3,27.9,31.11,WNW,293,0.9,2.2,87,0.00,,,0.00,WUHU216HW,2013-01-14 19:07:00,
2013-01-14 11:12:00,31.3,27.9,31.11,WNW,293,1.1,2.5,87,0.00,,,0.00,WUHU216HW,2013-01-14 19:12:00,
2013-01-14 11:17:00,31.3,27.9,31.11,WNW,293,0.7,2.5,87,0.00,,,0.00,WUHU216HW,2013-01-14 19:17:00,
2013-01-14 11:22:00,31.7,28.3,31.11,WNW,293,1.8,2.7,87,0.00,,,0.00,WUHU216HW,2013-01-14 19:22:00,
2013-01-14 11:27:00,31.7,28.3,31.11,WNW,293,0.0,2.7,87,0.00,,,0.00,WUHU216HW,2013-01-14 19:27:00,
2013-01-14 11:32:00,31.9,28.4,31.10,WNW,293,2.0,2.2,87,0.00,,,0.00,WUHU216HW,2013-01-14 19:32:00,
2013-01-14 11:37:00,31.9,28.4,31.10,WNW,293,0.9,3.6,87,0.00,,,0.00,WUHU216HW,2013-01-14 19:37:00,
2013-01-14 11:42:00,32.0,28.4,31.10,WNW,293,3.1,3.6,86,0.00,,,0.00,WUHU216HW,2013-01-14 19:42:00,
2013-01-14 11:47:00,32.0,28.4,31.10,West,270,1.1,4.7,86,0.00,,,0.00,WUHU216HW,2013-01-14 19:47:00,
2013-01-14 11:52:00,32.2,28.5,31.10,West,270,0.4,4.7,86,0.00,,,0.00,WUHU216HW,2013-01-14 19:52:00,
2013-01-14 11:57:00,32.6,28.9,31.10,West,270,0.2,5.8,86,0.00,,,0.00,WUHU216HW,2013-01-14 19:57:00,
2013-01-14 12:02:00,32.6,28.9,31.09,SW,225,3.6,5.8,86,0.00,,,0.00,WUHU216HW,2013-01-14 20:02:00,
2013-01-14 12:07:00,32.4,28.7,31.09,SSW,203,2.9,3.6,86,0.00,,,0.00,WUHU216HW,2013-01-14 20:07:00,
2013-01-14 12:12:00,32.6,28.9,31.09,WSW,248,1.6,2.9,86,0.00,,,0.00,WUHU216HW,2013-01-14 20:12:00,
2013-01-14 12:17:00,32.9,29.2,31.08,West,270,1.1,2.0,86,0.00,,,0.00,WUHU216HW,2013-01-14 20:17:00,
2013-01-14 12:22:00,32.9,28.9,31.08,SW,225,2.5,2.7,85,0.00,,,0.00,WUHU216HW,2013-01-14 20:22:00,
2013-01-14 12:27:00,32.9,28.9,31.08,SSW,203,1.1,2.7,85,0.00,,,0.00,WUHU216HW,2013-01-14 20:27:00,
2013-01-14 12:32:00,33.1,29.1,31.08,SSE,158,2.5,5.1,85,0.00,,,0.00,WUHU216HW,2013-01-14 20:32:00,
2013-01-14 12:37:00,33.1,29.1,31.08,SSE,158,0.4,5.1,85,0.00,,,0.00,WUHU216HW,2013-01-14 20:37:00,
2013-01-14 12:42:00,33.5,29.3,31.08,SW,225,2.7,2.7,85,0.00,,,0.00,WUHU216HW,2013-01-14 20:42:00,
2013-01-14 12:47:00,33.8,29.7,31.08,WSW,248,2.5,2.7,85,0.00,,,0.00,WUHU216HW,2013-01-14 20:47:00,
2013-01-14 12:52:00,34.2,30.1,31.08,WSW,248,2.5,2.5,85,0.00,,,0.00,WUHU216HW,2013-01-14 20:52:00,
2013-01-14 12:57:00,34.4,30.0,31.08,SSW,203,1.8,2.5,84,0.00,,,0.00,WUHU216HW,2013-01-14 20:57:00,
2013-01-14 13:02:00,34.2,29.8,31.08,South,180,1.1,2.0,84,0.00,,,0.00,WUHU216HW,2013-01-14 21:02:00,
2013-01-14 13:07:00,34.2,30.1,31.08,WSW,248,1.3,4.0,85,0.00,,,0.00,WUHU216HW,2013-01-14 21:07:00,
2013-01-14 13:12:00,34.6,30.2,31.07,WSW,248,0.4,4.0,84,0.00,,,0.00,WUHU216HW,2013-01-14 21:12:00,
2013-01-14 13:17:00,34.9,30.5,31.07,West,270,3.1,3.1,84,0.00,,,0.00,WUHU216HW,2013-01-14 21:17:00,
2013-01-14 13:22:00,34.9,30.5,31.07,NW,315,0.9,3.4,84,0.00,,,0.00,WUHU216HW,2013-01-14 21:22:00,
2013-01-14 13:27:00,35.3,30.9,31.07,WSW,248,2.0,3.4,84,0.00,,,0.00,WUHU216HW,2013-01-14 21:27:00,
2013-01-14 13:32:00,35.3,30.9,31.07,SSE,158,1.8,2.5,84,0.00,,,0.00,WUHU216HW,2013-01-14 21:32:00,
2013-01-14 13:37:00,35.3,30.9,31.07,West,270,0.4,3.1,84,0.00,,,0.00,WUHU216HW,2013-01-14 21:37:00,
2013-01-14 13:42:00,35.3,30.9,31.07,SW,225,1.8,3.1,84,0.00,,,0.00,WUHU216HW,2013-01-14 21:42:00,
2013-01-14 13:47:00,35.5,31.1,31.07,SSW,203,1.1,2.5,84,0.00,,,0.00,WUHU216HW,2013-01-14 21:47:00,
2013-01-14 13:52:00,35.3,30.6,31.07,SSE,158,1.1,3.1,83,0.00,,,0.00,WUHU216HW,2013-01-14 21:52:00,
2013-01-14 13:57:00,34.9,30.3,31.07,South,180,1.6,3.1,83,0.00,,,0.00,WUHU216HW,2013-01-14 21:57:00,
2013-01-14 14:02:00,34.9,30.5,31.07,SSW,203,0.4,2.5,84,0.00,,,0.00,WUHU216HW,2013-01-14 22:02:00,
2013-01-14 14:07:00,34.9,30.5,31.07,WSW,248,0.7,2.5,84,0.00,,,0.00,WUHU216HW,2013-01-14 22:07:00,
2013-01-14 14:12:00,34.9,30.5,31.08,WSW,248,1.1,2.0,84,0.00,,,0.00,WUHU216HW,2013-01-14 22:12:00,
2013-01-14 14:17:00,35.3,30.9,31.09,SSE,158,1.3,2.2,84,0.00,,,0.00,WUHU216HW,2013-01-14 22:17:00,
2013-01-14 14:22:00,35.8,31.4,31.09,WNW,293,1.1,2.2,84,0.00,,,0.00,WUHU216HW,2013-01-14 22:22:00,
2013-01-14 14:27:00,36.2,31.5,31.09,West,270,1.1,1.8,83,0.00,,,0.00,WUHU216HW,2013-01-14 22:27:00,
2013-01-14 14:32:00,36.4,31.7,31.09,West,270,0.7,1.8,83,0.00,,,0.00,WUHU216HW,2013-01-14 22:32:00,
2013-01-14 14:37:00,36.5,31.9,31.09,West,270,1.1,1.8,83,0.00,,,0.00,WUHU216HW,2013-01-14 22:37:00,
2013-01-14 14:42:00,36.7,32.1,31.09,SE,135,1.1,2.2,83,0.00,,,0.00,WUHU216HW,2013-01-14 22:42:00,
2013-01-14 14:47:00,36.5,31.5,31.09,SSE,158,0.4,2.2,82,0.00,,,0.00,WUHU216HW,2013-01-14 22:47:00,
2013-01-14 14:52:00,36.5,31.5,31.09,SW,225,0.0,1.1,82,0.00,,,0.00,WUHU216HW,2013-01-14 22:52:00,
2013-01-14 14:57:00,36.7,31.7,31.08,WSW,248,1.1,1.1,82,0.00,,,0.00,WUHU216HW,2013-01-14 22:57:00,
2013-01-14 15:02:00,36.9,32.2,31.08,WSW,248,1.1,1.8,83,0.00,,,0.00,WUHU216HW,2013-01-14 23:02:00,
2013-01-14 15:07:00,37.1,32.0,31.08,SW,225,0.4,1.8,82,0.00,,,0.00,WUHU216HW,2013-01-14 23:07:00,
2013-01-14 15:12:00,36.9,31.9,31.08,SW,225,0.2,0.9,82,0.00,,,0.00,WUHU216HW,2013-01-14 23:12:00,
2013-01-14 15:17:00,36.9,31.9,31.08,SSW,203,0.4,0.4,82,0.00,,,0.00,WUHU216HW,2013-01-14 23:17:00,
2013-01-14 15:22:00,37.1,32.0,31.08,SSW,203,0.7,0.7,82,0.00,,,0.00,WUHU216HW,2013-01-14 23:22:00,
2013-01-14 15:27:00,36.9,31.9,31.09,SE,135,1.3,1.3,82,0.00,,,0.00,WUHU216HW,2013-01-14 23:27:00,
2013-01-14 15:32:00,36.7,31.4,31.09,South,180,1.8,1.8,81,0.00,,,0.00,WUHU216HW,2013-01-14 23:32:00,
2013-01-14 15:37:00,36.7,31.4,31.08,West,270,0.2,1.8,81,0.00,,,0.00,WUHU216HW,2013-01-14 23:37:00,
2013-01-14 15:42:00,36.7,31.7,31.08,WSW,248,0.4,0.9,82,0.00,,,0.00,WUHU216HW,2013-01-14 23:42:00,
2013-01-14 15:47:00,36.7,31.7,31.08,WSW,248,0.9,1.1,82,0.00,,,0.00,WUHU216HW,2013-01-14 23:47:00,
2013-01-14 15:52:00,36.9,31.9,31.08,WSW,248,0.4,1.1,82,0.00,,,0.00,WUHU216HW,2013-01-14 23:52:00,
2013-01-14 15:57:00,36.9,31.9,31.08,WSW,248,1.8,1.8,82,0.00,,,0.00,WUHU216HW,2013-01-14 23:57:00,
2013-01-14 16:02:00,36.9,31.9,31.08,SW,225,0.4,1.8,82,0.00,,,0.00,WUHU216HW,2013-01-15 00:02:00,
2013-01-14 16:07:00,36.9,31.9,31.08,SW,225,0.4,1.1,82,0.00,,,0.00,WUHU216HW,2013-01-15 00:07:00,
2013-01-14 16:12:00,36.9,31.9,31.08,SSE,158,0.4,0.7,82,0.00,,,0.00,WUHU216HW,2013-01-15 00:12:00,
2013-01-14 16:17:00,36.7,31.7,31.07,SW,225,0.4,1.1,82,0.00,,,0.00,WUHU216HW,2013-01-15 00:17:00,
2013-01-14 16:22:00,36.7,31.7,31.08,WSW,248,0.9,1.1,82,0.00,,,0.00,WUHU216HW,2013-01-15 00:22:00,
2013-01-14 16:27:00,36.5,31.5,31.07,West,270,0.9,1.1,82,0.00,,,0.00,WUHU216HW,2013-01-15 00:27:00,
2013-01-14 16:32:00,36.5,31.5,31.07,SSW,203,0.4,1.1,82,0.00,,,0.00,WUHU216HW,2013-01-15 00:32:00,
2013-01-14 16:37:00,36.4,31.3,31.07,WSW,248,0.2,1.1,82,0.00,,,0.00,WUHU216HW,2013-01-15 00:37:00,
2013-01-14 16:42:00,36.4,31.3,31.08,SSW,203,0.0,1.1,82,0.00,,,0.00,WUHU216HW,2013-01-15 00:42:00,
2013-01-14 16:47:00,36.4,31.3,31.07,WSW,248,0.0,0.9,82,0.00,,,0.00,WUHU216HW,2013-01-15 00:47:00,
2013-01-14 16:52:00,36.4,31.3,31.08,West,270,0.4,0.9,82,0.00,,,0.00,WUHU216HW,2013-01-15 00:52:00,
2013-01-14 16:57:00,36.5,31.5,31.08,SSE,158,0.4,1.1,82,0.00,,,0.00,WUHU216HW,2013-01-15 00:57:00,
2013-01-14 17:02:00,36.4,31.3,31.07,SSE,158,0.0,1.1,82,0.00,,,0.00,WUHU216HW,2013-01-15 01:02:00,
2013-01-14 17:07:00,36.4,31.3,31.08,SSE,158,0.0,0.4,82,0.00,,,0.00,WUHU216HW,2013-01-15 01:07:00,
2013-01-14 17:12:00,36.4,31.3,31.08,SSE,158,0.0,0.0,82,0.00,,,0.00,WUHU216HW,2013-01-15 01:12:00,
2013-01-14 17:17:00,36.4,31.3,31.08,SSE,158,0.0,0.0,82,0.00,,,0.00,WUHU216HW,2013-01-15 01:17:00,
2013-01-14 17:22:00,36.2,31.1,31.08,SSW,203,0.0,0.0,82,0.00,,,0.00,WUHU216HW,2013-01-15 01:22:00,
2013-01-14 17:27:00,36.2,31.1,31.08,SSW,203,0.0,0.0,82,0.00,,,0.00,WUHU216HW,2013-01-15 01:27:00,
2013-01-14 17:32:00,36.2,31.5,31.08,SSW,203,0.0,0.0,83,0.00,,,0.00,WUHU216HW,2013-01-15 01:32:00,
2013-01-14 17:37:00,36.2,31.5,31.08,SSW,203,0.0,0.0,83,0.00,,,0.00,WUHU216HW,2013-01-15 01:37:00,
2013-01-14 17:42:00,36.2,31.5,31.08,ESE,113,0.0,0.2,83,0.00,,,0.00,WUHU216HW,2013-01-15 01:42:00,
2013-01-14 17:47:00,36.2,31.5,31.08,ESE,113,0.0,0.2,83,0.00,,,0.00,WUHU216HW,2013-01-15 01:47:00,
2013-01-14 17:52:00,36.2,31.5,31.08,ESE,113,0.0,0.0,83,0.00,,,0.00,WUHU216HW,2013-01-15 01:52:00,
2013-01-14 17:57:00,36.2,31.5,31.08,ESE,113,0.0,0.0,83,0.00,,,0.00,WUHU216HW,2013-01-15 01:57:00,
2013-01-14 18:02:00,36.2,31.5,31.08,ESE,113,0.0,0.0,83,0.00,,,0.00,WUHU216HW,2013-01-15 02:02:00,
2013-01-14 18:07:00,36.2,31.5,31.08,ESE,113,0.0,0.0,83,0.00,,,0.00,WUHU216HW,2013-01-15 02:07:00,
2013-01-14 18:12:00,36.2,31.5,31.08,SE,135,0.4,0.4,83,0.00,,,0.00,WUHU216HW,2013-01-15 02:12:00,
2013-01-14 18:17:00,36.2,31.5,31.08,ESE,113,0.0,0.4,83,0.00,,,0.00,WUHU216HW,2013-01-15 02:17:00,
2013-01-14 18:22:00,36.2,31.5,31.08,ESE,113,0.0,0.2,83,0.00,,,0.00,WUHU216HW,2013-01-15 02:22:00,
2013-01-14 18:27:00,36.2,31.5,31.09,ESE,113,0.0,0.0,83,0.00,,,0.00,WUHU216HW,2013-01-15 02:27:00,
2013-01-14 18:32:00,36.0,31.3,31.09,ESE,113,0.0,0.0,83,0.00,,,0.00,WUHU216HW,2013-01-15 02:32:00,
2013-01-14 18:37:00,36.0,31.3,31.08,ESE,113,0.0,0.0,83,0.00,,,0.00,WUHU216HW,2013-01-15 02:37:00,
2013-01-14 18:42:00,36.0,31.3,31.09,ESE,113,0.0,0.2,83,0.00,,,0.00,WUHU216HW,2013-01-15 02:42:00,
2013-01-14 18:47:00,36.0,31.3,31.08,ESE,113,0.0,0.2,83,0.00,,,0.00,WUHU216HW,2013-01-15 02:47:00,
2013-01-14 18:52:00,35.8,31.2,31.08,ESE,113,0.0,0.0,83,0.00,,,0.00,WUHU216HW,2013-01-15 02:52:00,
2013-01-14 18:57:00,35.6,31.0,31.08,ESE,113,0.0,0.0,83,0.00,,,0.00,WUHU216HW,2013-01-15 02:57:00,
2013-01-14 19:02:00,35.6,31.0,31.08,ESE,113,0.0,0.0,83,0.00,,,0.00,WUHU216HW,2013-01-15 03:02:00,
2013-01-14 19:07:00,35.6,31.2,31.08,ESE,113,0.0,0.0,84,0.00,,,0.00,WUHU216HW,2013-01-15 03:07:00,
2013-01-14 19:12:00,35.6,31.2,31.08,ESE,113,0.0,0.0,84,0.00,,,0.00,WUHU216HW,2013-01-15 03:12:00,
2013-01-14 19:17:00,35.6,31.2,31.08,ESE,113,0.0,0.0,84,0.00,,,0.00,WUHU216HW,2013-01-15 03:17:00,
2013-01-14 19:22:00,35.6,31.2,31.08,ESE,113,0.0,0.0,84,0.00,,,0.00,WUHU216HW,2013-01-15 03:22:00,
2013-01-14 19:27:00,35.6,31.2,31.08,ESE,113,0.0,0.0,84,0.00,,,0.00,WUHU216HW,2013-01-15 03:27:00,
2013-01-14 19:32:00,35.6,31.2,31.08,ESE,113,0.0,0.0,84,0.00,,,0.00,WUHU216HW,2013-01-15 03:32:00,
2013-01-14 19:37:00,35.6,31.2,31.08,ESE,113,0.0,0.0,84,0.00,,,0.00,WUHU216HW,2013-01-15 03:37:00,
2013-01-14 19:42:00,35.6,31.2,31.09,ESE,113,0.0,0.0,84,0.00,,,0.00,WUHU216HW,2013-01-15 03:42:00,
2013-01-14 19:47:00,35.6,31.2,31.09,ESE,113,0.0,0.0,84,0.00,,,0.00,WUHU216HW,2013-01-15 03:47:00,
2013-01-14 19:52:00,35.6,31.2,31.09,ESE,113,0.0,0.0,84,0.00,,,0.00,WUHU216HW,2013-01-15 03:52:00,
2013-01-14 19:57:00,35.6,31.2,31.09,ESE,113,0.0,0.0,84,0.00,,,0.00,WUHU216HW,2013-01-15 03:57:00,
2013-01-14 20:02:00,35.6,31.2,31.09,ESE,113,0.0,0.0,84,0.00,,,0.00,WUHU216HW,2013-01-15 04:02:00,
2013-01-14 20:07:00,35.8,31.4,31.09,ESE,113,0.0,0.0,84,0.00,,,0.00,WUHU216HW,2013-01-15 04:07:00,
2013-01-14 20:12:00,35.8,31.4,31.09,ESE,113,0.0,0.0,84,0.00,,,0.00,WUHU216HW,2013-01-15 04:12:00,
2013-01-14 20:17:00,36.0,31.6,31.09,ESE,113,0.0,0.2,84,0.00,,,0.00,WUHU216HW,2013-01-15 04:17:00,
2013-01-14 20:22:00,35.8,31.4,31.10,ESE,113,0.0,0.2,84,0.00,,,0.00,WUHU216HW,2013-01-15 04:22:00,
2013-01-14 20:27:00,36.0,31.6,31.10,ESE,113,0.0,0.0,84,0.00,,,0.00,WUHU216HW,2013-01-15 04:27:00,
2013-01-14 20:32:00,36.0,31.6,31.10,ESE,113,0.0,0.0,84,0.00,,,0.00,WUHU216HW,2013-01-15 04:32:00,
2013-01-14 20:56:00,35.8,31.4,31.09,ESE,113,0.0,0.0,84,0.00,,,0.00,WUHU216HW,2013-01-15 04:56:00,
2013-01-14 21:00:00,35.8,31.4,31.09,ESE,113,0.0,0.0,84,0.00,,,0.00,WUHU216HW,2013-01-15 05:00:00,
2013-01-14 21:01:00,35.8,31.4,31.09,ESE,113,0.0,0.0,84,0.00,,,0.00,WUHU216HW,2013-01-15 05:01:00,
2013-01-14 21:06:00,36.0,31.6,31.10,ESE,113,0.0,0.0,84,0.00,,,0.00,WUHU216HW,2013-01-15 05:06:00,
2013-01-14 21:11:00,35.8,31.4,31.10,ESE,113,0.0,0.0,84,0.00,,,0.00,WUHU216HW,2013-01-15 05:11:00,
2013-01-14 21:16:00,35.8,31.4,31.10,ESE,113,0.0,0.0,84,0.00,,,0.00,WUHU216HW,2013-01-15 05:16:00,
2013-01-14 21:21:00,35.8,31.4,31.10,ESE,113,0.0,0.0,84,0.00,,,0.00,WUHU216HW,2013-01-15 05:21:00,
2013-01-14 21:26:00,35.8,31.4,31.10,ESE,113,0.0,0.0,84,0.00,,,0.00,WUHU216HW,2013-01-15 05:26:00,
2013-01-14 21:31:00,35.6,31.5,31.10,ESE,113,0.0,0.0,85,0.00,,,0.00,WUHU216HW,2013-01-15 05:31:00,
2013-01-14 21:36:00,35.6,31.5,31.10,ENE,68,0.0,0.0,85,0.00,,,0.00,WUHU216HW,2013-01-15 05:36:00,
2013-01-14 21:41:00,35.6,31.5,31.10,North,0,0.0,0.4,85,0.00,,,0.00,WUHU216HW,2013-01-15 05:41:00,
2013-01-14 21:46:00,35.6,31.5,31.10,North,0,0.0,0.4,85,0.00,,,0.00,WUHU216HW,2013-01-15 05:46:00,
2013-01-14 21:51:00,35.6,31.2,31.09,North,0,0.0,0.0,84,0.00,,,0.00,WUHU216HW,2013-01-15 05:51:00,
2013-01-14 21:56:00,35.6,31.5,31.09,North,0,0.0,0.0,85,0.00,,,0.00,WUHU216HW,2013-01-15 05:56:00,
2013-01-14 22:01:00,35.5,31.1,31.09,North,0,0.0,0.0,84,0.00,,,0.00,WUHU216HW,2013-01-15 06:01:00,
2013-01-14 22:06:00,35.3,30.9,31.09,North,0,0.0,0.0,84,0.00,,,0.00,WUHU216HW,2013-01-15 06:06:00,
2013-01-14 22:11:00,35.3,30.9,31.09,North,0,0.0,0.0,84,0.00,,,0.00,WUHU216HW,2013-01-15 06:11:00,
2013-01-14 22:16:00,35.1,30.7,31.09,North,0,0.0,0.0,84,0.00,,,0.00,WUHU216HW,2013-01-15 06:16:00,
2013-01-14 22:21:00,34.9,30.5,31.10,North,0,0.0,0.0,84,0.00,,,0.00,WUHU216HW,2013-01-15 06:21:00,
2013-01-14 22:26:00,34.7,30.3,31.10,North,0,0.0,0.0,84,0.00,,,0.00,WUHU216HW,2013-01-15 06:26:00,
2013-01-14 22:31:00,34.7,30.6,31.10,North,0,0.0,0.0,85,0.00,,,0.00,WUHU216HW,2013-01-15 06:31:00,
2013-01-14 22:36:00,34.7,30.6,31.10,North,0,0.0,0.0,85,0.00,,,0.00,WUHU216HW,2013-01-15 06:36:00,
2013-01-14 22:41:00,34.6,30.4,31.10,North,0,0.0,0.4,85,0.00,,,0.00,WUHU216HW,2013-01-15 06:41:00,
2013-01-14 22:46:00,34.4,30.2,31.10,North,0,0.0,0.4,85,0.00,,,0.00,WUHU216HW,2013-01-15 06:46:00,
2013-01-14 22:51:00,34.4,30.2,31.10,NNW,338,0.0,0.4,85,0.00,,,0.00,WUHU216HW,2013-01-15 06:51:00,
2013-01-14 22:56:00,34.4,30.2,31.10,NNW,338,0.0,0.4,85,0.00,,,0.00,WUHU216HW,2013-01-15 06:56:00,
2013-01-14 23:01:00,34.6,30.4,31.10,NNW,338,0.0,0.0,85,0.00,,,0.00,WUHU216HW,2013-01-15 07:01:00,
2013-01-14 23:06:00,34.6,30.7,31.10,NNW,338,0.0,0.0,86,0.00,,,0.00,WUHU216HW,2013-01-15 07:06:00,
2013-01-14 23:11:00,34.6,30.7,31.10,NNW,338,0.0,0.0,86,0.00,,,0.00,WUHU216HW,2013-01-15 07:11:00,
2013-01-14 23:16:00,34.7,30.9,31.09,NNW,338,0.0,0.0,86,0.00,,,0.00,WUHU216HW,2013-01-15 07:16:00,
2013-01-14 23:21:00,34.7,30.9,31.10,NNW,338,0.0,0.2,86,0.00,,,0.00,WUHU216HW,2013-01-15 07:21:00,
2013-01-14 23:26:00,34.7,30.9,31.10,NNW,338,0.0,0.2,86,0.00,,,0.00,WUHU216HW,2013-01-15 07:26:00,
2013-01-14 23:31:00,34.9,31.1,31.10,NNW,338,0.0,0.0,86,0.00,,,0.00,WUHU216HW,2013-01-15 07:31:00,
2013-01-14 23:36:00,34.9,31.1,31.10,NNW,338,0.0,0.0,86,0.00,,,0.00,WUHU216HW,2013-01-15 07:36:00,
2013-01-14 23:41:00,34.9,31.1,31.10,NNW,338,0.0,0.0,86,0.00,,,0.00,WUHU216HW,2013-01-15 07:41:00,
2013-01-14 23:46:00,34.9,31.1,31.10,NNW,338,0.0,0.0,86,0.00,,,0.00,WUHU216HW,2013-01-15 07:46:00,
2013-01-14 23:51:00,34.9,31.1,31.09,NNW,338,0.0,0.0,86,0.00,,,0.00,WUHU216HW,2013-01-15 07:51:00,
2013-01-14 23:56:00,34.9,31.1,31.09,NNW,338,0.0,0.0,86,0.00,,,0.00,WUHU216HW,2013-01-15 07:56:00,